Location: Karcze
(52.0945°N, 22.4786°E)
Time: 03:30:04
(UTC+00:00)

Transit 2A Rocket - Pass Details

Date: 04 August 2021
Orbit: 586 x 916 km, 66.7° (Epoch: 21 September)

Event Time Altitude Azimuth Distance (km) Brightness Sun altitude
Rises 13:26:55 0° 244° (WSW) 2,907 8.9 41.6°
Reaches altitude 10° 13:29:14 10° 253° (WSW) 2,042 8.3 41.3°
Maximum altitude 13:33:33 39° 322° (NW) 1,035 6.2 40.7°
Drops below altitude 10° 13:38:17 10° 31° (NNE) 2,238 7.1 40.0°
Sets 13:40:56 0° 40° (NE) 3,224 7.8 39.7°
